Temperature
21 21 21 21 21 21 20 20 20 20 20 19 19 19 19 18 18 18 18 18 18 18 18 18 17 17 18 18 18 18 18 17 18 18 17 17 17 17 17 17 17 17 17
21 21 21 21 21 21 20 20 20 20 20 19 19 19 19 18 18 18 18 18 18 18 18 18 17 17 17 17 17 17 17 17 17 17 17 17 17 17 17 17 17 17 17
22 22 21 21 21 21 21 20 20 20 20 19 19 19 19 18 18 18 18 18 18 18 17 17 17 17 17 17 17 17 17 17 17 17 17 17 17 17 17 17 17 17 17
22 22 22 21 21 21 21 20 20 20 20 19 19 19 19 18 18 18 18 17 17 17 17 17 17 17 17 17 17 17 17 17 17 17 17 17 17 17 17 17 17 17 17
22 22 22 22 21 21 20 20 20 20 20 19 19 19 19 18 18 18 18 17 17 17 17 17 17 17 17 17 17 17 17 17 17 17 17 17 17 17 17 16 16 17 17
22 22 22 22 21 21 21 20 20 20 19 19 19 19 19 18 18 18 18 17 17 17 17 17 17 17 17 17 16 16 16 17 17 17 17 17 17 17 16 16 16 16 16
21 22 21 21 21 21 21 20 20 20 19 19 19 19 18 18 18 18 18 18 17 17 17 17 17 17 16 16 16 16 16 16 16 16 16 16 16 16 16 16 16 16 16
21 21 21 21 21 21 21 20 20 20 19 19 19 18 18 18 18 18 18 18 17 17 17 17 16 16 16 16 16 16 16 16 16 16 16 16 16 16 16 16 16 16 15
21 21 21 21 21 21 21 20 20 20 19 19 19 18 18 18 18 18 17 17 17 17 17 16 16 16 16 16 16 16 16 16 16 16 16 16 16 16 16 16 16 15 15
21 21 21 21 21 21 20 20 20 19 19 19 18 18 18 18 18 17 17 17 17 17 16 16 16 16 16 16 16 16 16 16 16 16 16 16 16 16 16 15 15 15 15
21 21 21 21 21 20 20 20 19 19 19 19 18 18 18 18 17 17 17 17 16 16 16 16 16 16 16 16 16 15 15 15 15 15 15 15 15 15 15 15 15 15 15
21 21 21 21 20 20 20 19 19 19 19 19 18 18 18 18 17 17 17 16 16 16 16 16 16 15 15 15 15 15 15 15 15 15 15 15 15 15 15 15 15 15 15
20 20 20 20 20 20 19 19 19 19 19 18 18 18 18 17 17 17 17 16 16 16 16 15 15 15 15 15 15 15 15 15 15 15 15 15 15 15 15 15 15 15 14
20 20 20 20 20 19 19 19 19 19 19 18 18 18 18 17 17 17 16 16 16 16 15 15 15 15 15 15 15 14 15 15 15 14 14 14 15 15 15 14 14 14 14
19 20 20 20 20 19 19 19 19 18 18 18 18 17 17 17 17 17 16 16 16 15 15 15 15 15 15 14 14 14 14 14 14 14 14 14 14 14 14 14 14 14 13
19 19 19 19 19 19 19 18 18 18 18 18 17 17 17 17 16 16 16 16 15 15 15 15 15 14 14 14 14 14 14 14 14 14 14 14 14 14 14 14 14 14 13
19 19 19 19 19 19 19 18 18 18 18 17 17 17 16 16 16 16 16 15 15 15 15 15 14 14 14 14 14 14 14 14 14 13 13 13 13 13 13 13 13 13 13
19 19 19 19 19 19 18 18 18 18 17 17 17 17 16 16 16 15 15 15 15 15 14 14 14 14 14 14 14 13 13 13 13 13 13 13 13 13 13 13 13 13 12
19 19 19 19 19 18 18 18 17 17 17 17 17 16 16 16 15 15 15 15 15 14 14 14 14 14 14 14 13 13 13 13 13 13 13 12 12 12 12 12 12 12 12
19 19 18 18 18 18 17 17 17 17 16 16 16 16 16 15 15 15 15 15 14 14 14 14 14 13 13 13 13 13 13 12 12 12 12 12 12 12 12 12 12 12 12
18 18 18 18 17 17 17 17 17 16 16 16 15 15 15 15 15 14 14 14 14 14 13 13 13 13 13 12 12 12 12 12 12 12 12 12 11 11 11 11 11 11 11
17 17 17 17 17 16 16 16 16 16 15 15 15 15 15 15 14 14 14 14 13 13 13 13 13 12 12 12 12 11 11 11 11 11 11 11 11 11 11 11 11 11 11
17 17 17 16 16 16 16 16 15 15 15 15 15 14 14 14 14 14 14 13 13 13 13 12 12 12 12 11 11 11 11 11 11 11 11 11 11 11 11 10 10 10 10
16 16 16 16 15 15 15 15 15 15 15 14 14 14 14 14 13 13 13 13 13 13 12 12 12 11 11 11 11 11 11 11 11 10 10 10 10 10 10 10 10 10 10
16 16 16 15 15 15 15 14 14 14 14 14 13 13 13 13 13 13 12 12 12 12 12 12 11 11 11 11 11 11 11 10 10 10 10 10 10 10 10 10 10 10 10
16 15 15 15 15 14 14 14 14 14 13 13 13 13 12 12 12 12 12 12 12 12 12 11 11 11 11 10 10 10 10 10 10 10 10 9 9 9 9 9 9 9 9
Wind_Speed
4 3 4 4 4 4 4 4 4 3 3 2 2 2 2 2 2 3 4 4 3 3 3 3 3 3 3 2 3 2 4 3 3 3 3 3 4 3 2 2 2 2 2
3 4 5 5 5 5 4 4 4 4 3 2 2 2 2 2 2 2 4 4 3 3 3 3 2 3 2 3 3 3 3 2 3 2 2 2 3 3 3 2 2 1 2
6 6 6 6 5 5 5 5 4 3 3 3 3 4 3 3 3 3 3 3 4 4 3 3 2 2 2 2 2 2 3 2 2 2 2 2 0 1 1 2 2 1 2
6 6 6 6 6 6 5 5 4 4 3 4 4 5 4 2 1 1 1 2 3 3 3 3 3 2 2 2 1 2 2 2 1 1 2 1 2 1 1 2 2 3 2
7 7 7 7 6 6 5 5 5 4 3 4 5 5 3 2 1 2 2 2 2 3 3 3 2 2 2 2 2 2 2 1 1 1 1 2 2 2 2 1 2 2 2
6 6 5 5 5 5 5 4 5 4 3 4 4 5 5 3 3 2 1 1 1 2 2 2 2 2 1 1 1 1 1 1 1 1 1 1 1 1 2 1 1 1 1
6 7 7 7 7 7 6 5 5 4 3 4 4 4 4 4 4 2 2 1 1 1 1 1 1 1 1 1 1 1 1 1 1 1 1 0 1 1 2 2 1 0 1
5 6 7 7 7 7 7 7 6 4 4 4 4 3 4 3 2 2 2 1 1 1 1 1 1 1 1 1 1 1 1 1 0 1 1 0 0 1 1 2 2 1 1
4 5 6 7 7 7 7 7 7 5 4 4 4 3 3 3 3 2 2 1 1 1 0 0 1 1 1 1 1 1 1 1 1 0 0 0 0 1 1 2 2 3 1
3 4 5 6 6 6 6 6 6 5 4 3 3 3 2 2 2 2 2 1 1 0 1 1 1 1 1 1 1 1 1 1 1 1 1 1 1 0 1 2 2 2 2
4 4 4 4 5 5 5 5 5 4 4 4 3 3 2 2 2 2 1 1 1 1 1 1 1 0 1 1 1 1 1 1 1 1 1 1 1 1 0 1 2 2 2
4 4 4 5 5 5 5 5 4 4 3 3 3 3 2 2 2 1 1 1 1 0 1 1 1 0 1 1 1 1 1 1 0 1 1 1 1 1 1 1 2 2 2
4 5 5 5 5 5 4 4 4 4 3 4 3 2 2 2 2 2 1 1 0 0 0 1 1 1 0 0 0 0 0 0 0 0 0 0 1 1 1 1 1 1 1
4 5 4 4 4 4 4 4 4 4 5 5 4 3 2 2 2 2 1 1 1 0 0 0 1 1 1 1 1 0 0 1 1 1 1 1 1 2 2 1 2 2 2
4 4 4 4 4 4 3 3 3 4 4 5 3 3 2 2 2 1 1 0 0 0 0 0 1 1 0 1 1 1 0 1 1 1 1 1 1 2 2 2 2 3 2
4 4 4 4 4 4 4 4 3 3 4 4 3 2 2 2 1 1 1 1 1 1 1 1 1 2 2 2 1 0 1 1 1 1 1 1 1 0 1 3 3 4 4
4 4 4 4 4 4 4 4 4 4 4 3 2 2 3 2 1 1 2 1 0 1 1 1 1 2 2 2 2 2 1 1 1 1 1 1 0 1 1 1 2 2 3
3 4 4 4 4 4 4 4 4 4 3 2 2 2 2 2 2 2 1 1 1 1 0 1 1 1 2 3 3 2 1 1 1 1 1 1 1 0 2 2 1 0 1
3 3 3 4 4 4 4 5 5 4 2 2 2 2 2 3 2 2 2 1 1 0 1 1 0 1 2 2 2 2 1 1 1 1 1 0 1 1 2 2 1 0 1
3 3 4 4 4 3 5 5 4 3 2 1 1 1 1 2 2 2 2 1 1 0 0 1 1 1 2 2 2 2 1 0 1 2 2 2 1 0 1 1 1 1 2
5 5 6 5 4 4 5 5 4 1 1 1 2 2 1 2 2 1 1 1 1 1 1 2 2 2 2 2 2 2 1 1 0 1 1 2 2 1 1 1 2 3 2
5 6 6 5 4 4 6 5 2 1 1 2 3 2 1 2 2 2 2 2 2 2 2 2 3 3 3 3 2 2 1 1 1 1 2 2 2 2 2 1 2 1 0
4 4 6 5 3 3 4 4 2 1 3 3 2 2 2 2 2 2 2 1 2 1 1 1 1 2 3 3 4 2 1 1 1 1 1 2 2 1 1 1 1 1 1
4 4 5 5 3 1 2 2 1 2 4 3 2 2 3 2 2 2 1 1 1 1 1 1 1 2 2 2 2 2 1 1 1 1 2 3 3 3 3 2 2 1 1
3 3 4 4 2 1 1 1 2 3 4 3 2 2 2 2 1 1 0 1 1 2 2 2 2 1 2 3 2 0 1 1 1 1 1 1 2 2 2 2 2 1 1
3 3 3 3 2 2 1 1 2 3 4 3 2 1 1 1 1 1 2 3 1 1 1 2 2 1 2 2 1 1 1 1 1 1 0 1 1 1 2 2 2 1 1
Wind_Direction
203 175 167 156 140 132 132 137 132 124 114 102 99 89 71 56 50 50 49 56 65 78 80 66 54 56 63 58 56 68 61 51 57 75 59 51 63 70 73 81 92 95 97
179 174 170 162 160 157 153 147 145 140 135 130 125 117 109 88 70 43 45 50 58 68 87 79 73 67 66 54 53 66 70 57 45 71 87 47 34 41 52 73 96 85 74
196 187 182 173 163 164 166 161 155 146 139 127 108 95 76 59 52 43 30 27 50 63 71 66 74 69 77 70 55 72 88 85 44 50 91 106 125 8 29 56 60 61 72
197 183 178 174 172 170 161 150 149 144 139 131 127 129 125 118 117 91 52 29 47 56 63 65 66 67 69 73 63 68 83 98 81 41 52 90 128 116 46 36 47 49 53
192 184 182 175 165 155 154 148 141 134 127 131 138 129 119 121 104 80 61 38 31 45 54 62 63 62 59 60 58 62 81 96 105 84 73 74 64 80 118 82 30 35 28
185 176 166 149 148 142 137 139 136 133 131 131 133 139 142 137 121 103 80 36 23 26 36 61 62 61 58 50 50 62 74 94 104 93 91 124 130 133 131 139 87 19 351
178 171 166 163 159 151 150 149 146 145 144 138 139 148 154 153 152 151 141 119 38 2 353 53 66 54 40 43 49 68 51 74 137 156 162 149 158 146 142 133 133 98 353
173 177 175 170 166 162 159 157 161 164 166 159 158 154 157 159 159 162 155 164 196 247 321 47 86 72 65 56 51 52 21 36 83 129 142 130 180 141 139 143 142 122 40
175 173 165 165 165 168 169 168 166 166 169 166 157 153 157 155 155 157 152 170 224 202 113 91 62 50 60 64 75 53 19 34 19 6 86 155 238 158 159 154 163 158 171
151 153 160 163 166 171 166 162 163 166 161 159 169 172 169 157 149 148 155 175 201 133 120 95 61 38 33 46 65 45 16 47 15 10 34 10 330 140 172 172 171 167 176
162 154 156 155 150 147 148 155 161 154 157 164 160 150 156 149 139 151 169 184 193 169 147 152 122 52 18 45 71 51 48 60 14 356 26 349 14 89 112 152 154 156 165
151 142 135 133 133 135 139 151 160 164 168 155 144 147 140 137 144 162 183 165 194 205 180 158 150 160 23 34 82 58 52 93 341 325 357 341 68 83 100 131 146 155 172
124 124 127 138 145 144 143 141 159 170 154 142 139 139 145 154 169 179 182 166 159 347 305 129 163 225 235 83 116 130 29 354 314 318 235 259 120 112 125 142 145 150 142
127 127 131 139 141 144 150 150 153 150 145 143 148 160 173 181 184 172 179 199 191 176 305 270 223 225 215 193 188 141 60 322 329 327 271 227 181 198 182 169 165 149 134
137 140 142 141 139 137 138 146 147 143 143 140 152 176 170 155 138 140 166 169 159 213 128 40 357 332 270 224 197 191 222 269 300 321 312 270 178 176 172 173 174 161 156
163 152 143 141 147 152 150 147 151 147 140 142 160 157 139 143 147 153 121 87 56 45 58 33 5 347 325 340 319 251 212 252 266 288 306 320 325 104 136 151 160 164 173
169 164 161 159 159 162 155 152 156 139 131 135 146 160 158 160 173 169 131 130 102 56 43 9 12 344 327 352 359 12 47 257 251 259 288 313 356 80 103 118 135 164 180
167 170 166 163 162 150 139 133 120 116 123 135 150 162 160 161 154 138 138 146 147 141 311 341 338 344 338 5 19 27 45 43 288 258 245 238 281 237 138 124 93 73 251
154 164 159 152 140 135 130 118 112 108 113 144 162 169 170 167 156 159 180 178 162 182 273 300 314 318 310 343 20 56 84 41 354 356 10 243 254 250 134 124 124 355 320
92 109 108 104 108 108 113 114 116 119 141 167 161 139 153 157 168 178 172 155 148 210 344 331 321 317 322 349 32 74 112 60 332 343 353 349 330 313 122 146 169 236 287
89 95 98 97 103 112 115 111 105 119 189 143 118 118 141 144 137 121 109 114 101 76 34 3 349 344 341 4 30 66 123 173 258 313 326 329 336 323 283 219 216 233 253
85 94 95 88 89 104 111 107 114 202 126 104 107 114 119 122 105 105 88 91 94 77 39 23 4 360 355 4 1 16 48 93 131 284 298 309 325 322 301 256 229 226 225
101 100 102 93 77 91 119 130 173 148 117 107 112 116 98 78 90 111 109 90 82 77 38 19 352 344 351 354 355 352 0 69 70 318 326 344 359 2 8 54 91 102 111
109 108 106 100 86 79 109 132 135 121 121 118 118 121 107 84 68 75 95 111 117 89 40 342 314 317 329 332 341 355 5 18 22 359 3 28 39 36 31 40 52 70 109
115 121 127 129 134 112 100 104 115 117 122 118 110 113 121 126 96 61 80 151 199 181 183 227 239 250 290 293 284 282 322 288 291 35 39 34 28 22 14 9 11 13 14
135 132 137 138 147 135 114 97 112 125 125 123 123 131 143 136 131 98 28 25 28 30 179 184 189 232 251 272 294 288 264 311 91 107 84 326 333 321 316 321 328 334 330
Height
1500 1502 1503 1504 1506 1507 1508 1508 1508 1509 1509 1510 1510 1510 1511 1511 1511 1511 1512 1511 1511 1511 1510 1509 1509 1508 1507 1507 1506 1505 1504 1504 1504 1505 1505 1506 1506 1507 1509 1510 1511 1513 1514
1499 1501 1502 1504 1505 1507 1508 1509 1509 1510 1510 1511 1511 1512 1512 1512 1512 1512 1512 1512 1512 1511 1511 1510 1509 1509 1508 1508 1507 1507 1506 1506 1506 1506 1506 1507 1509 1509 1510 1511 1512 1513 1514
1497 1499 1501 1502 1504 1506 1507 1509 1510 1510 1511 1512 1512 1513 1513 1513 1513 1513 1513 1513 1512 1512 1512 1511 1511 1510 1510 1509 1509 1508 1508 1508 1508 1508 1509 1508 1509 1510 1512 1512 1513 1514 1514
1496 1497 1499 1501 1503 1505 1507 1508 1510 1511 1512 1512 1513 1513 1513 1513 1513 1514 1514 1514 1513 1513 1512 1512 1512 1511 1511 1510 1510 1510 1509 1509 1509 1510 1510 1511 1510 1511 1512 1513 1513 1514 1514
1494 1496 1497 1499 1502 1504 1506 1508 1510 1511 1512 1513 1513 1513 1514 1514 1514 1514 1514 1514 1514 1514 1513 1513 1512 1512 1512 1511 1511 1511 1510 1510 1510 1510 1511 1511 1511 1511 1512 1513 1513 1514 1514
1492 1494 1497 1499 1501 1503 1506 1508 1510 1511 1512 1513 1513 1513 1514 1514 1514 1514 1514 1514 1514 1514 1513 1513 1513 1512 1512 1512 1512 1511 1511 1511 1511 1511 1511 1511 1511 1512 1512 1512 1513 1513 1514
1490 1493 1495 1497 1499 1502 1505 1507 1509 1511 1512 1513 1513 1514 1514 1514 1514 1514 1514 1514 1514 1513 1513 1513 1513 1513 1512 1512 1512 1512 1511 1511 1511 1511 1511 1511 1511 1512 1512 1512 1512 1513 1513
1489 1491 1493 1495 1498 1500 1503 1506 1508 1509 1511 1512 1513 1513 1514 1514 1514 1515 1515 1515 1514 1514 1513 1513 1513 1512 1512 1512 1512 1511 1511 1511 1511 1510 1510 1511 1511 1511 1511 1512 1512 1512 1513
1487 1490 1492 1494 1496 1499 1501 1504 1506 1508 1510 1511 1512 1513 1513 1514 1514 1514 1514 1514 1514 1514 1513 1512 1512 1512 1512 1511 1511 1510 1510 1510 1510 1510 1510 1510 1510 1510 1510 1511 1511 1512 1512
1487 1488 1491 1493 1495 1498 1500 1503 1505 1507 1509 1510 1511 1512 1513 1513 1513 1514 1514 1514 1514 1513 1512 1512 1511 1511 1511 1510 1510 1509 1509 1509 1509 1509 1509 1509 1509 1509 1510 1510 1510 1511 1511
1485 1487 1489 1492 1495 1497 1499 1502 1504 1505 1507 1509 1510 1511 1512 1512 1513 1513 1513 1513 1513 1512 1512 1511 1510 1510 1509 1509 1508 1508 1508 1508 1508 1508 1508 1508 1508 1508 1508 1509 1509 1509 1510
1485 1487 1489 1491 1493 1496 1498 1500 1503 1504 1506 1508 1509 1510 1511 1511 1512 1512 1512 1512 1512 1511 1511 1510 1509 1509 1508 1507 1507 1507 1507 1506 1506 1506 1506 1506 1506 1506 1506 1507 1507 1507 1507
1485 1487 1489 1490 1492 1495 1497 1499 1501 1503 1504 1506 1508 1509 1510 1510 1510 1511 1511 1511 1511 1510 1510 1509 1508 1507 1507 1506 1506 1506 1506 1505 1505 1504 1504 1504 1504 1504 1504 1505 1505 1505 1505
1485 1486 1488 1489 1492 1494 1496 1498 1500 1501 1503 1505 1506 1507 1508 1509 1509 1510 1510 1510 1510 1509 1509 1508 1508 1507 1506 1506 1505 1505 1504 1504 1503 1502 1502 1502 1502 1502 1503 1503 1503 1503 1503
1484 1486 1487 1489 1491 1493 1495 1497 1499 1500 1502 1503 1505 1506 1507 1508 1508 1509 1509 1509 1509 1508 1508 1507 1507 1506 1505 1504 1504 1503 1502 1502 1501 1501 1500 1500 1501 1501 1501 1501 1500 1501 1501
1484 1486 1487 1489 1490 1492 1494 1496 1498 1499 1501 1502 1503 1505 1505 1507 1507 1508 1508 1508 1508 1507 1507 1506 1506 1505 1504 1503 1502 1502 1500 1500 1499 1499 1499 1499 1498 1498 1498 1498 1498 1499 1499
1483 1485 1487 1488 1490 1492 1493 1495 1497 1498 1500 1501 1503 1504 1504 1505 1506 1507 1507 1507 1506 1506 1505 1505 1504 1503 1502 1501 1500 1500 1499 1498 1497 1496 1496 1496 1496 1496 1496 1496 1496 1496 1496
1483 1484 1486 1488 1490 1492 1493 1495 1496 1497 1499 1501 1502 1503 1503 1503 1504 1505 1505 1505 1505 1505 1504 1503 1502 1501 1500 1499 1498 1497 1496 1495 1494 1494 1494 1494 1494 1494 1494 1494 1494 1493 1494
1482 1483 1485 1487 1488 1490 1492 1493 1495 1497 1498 1500 1501 1501 1502 1502 1502 1503 1503 1503 1503 1503 1502 1501 1500 1499 1497 1496 1495 1495 1494 1493 1492 1492 1491 1491 1492 1492 1492 1491 1491 1491 1491
1481 1483 1484 1486 1487 1489 1491 1493 1495 1496 1497 1499 1499 1500 1501 1501 1501 1501 1501 1501 1501 1500 1500 1499 1498 1497 1496 1494 1493 1492 1492 1491 1491 1490 1490 1490 1489 1489 1489 1489 1489 1489 1489
1481 1483 1484 1486 1487 1489 1491 1492 1494 1495 1496 1497 1498 1498 1499 1499 1500 1499 1499 1499 1499 1499 1498 1497 1496 1495 1494 1493 1492 1491 1490 1489 1489 1488 1488 1487 1487 1487 1487 1487 1487 1486 1486
1481 1483 1485 1486 1488 1489 1490 1491 1492 1494 1495 1496 1496 1497 1498 1498 1497 1498 1498 1498 1498 1497 1496 1495 1494 1493 1492 1491 1490 1490 1489 1488 1488 1487 1486 1485 1485 1485 1484 1484 1484 1484 1484
1482 1483 1484 1486 1487 1489 1490 1490 1491 1492 1493 1494 1495 1495 1496 1496 1496 1496 1496 1496 1496 1495 1495 1494 1493 1492 1491 1490 1489 1488 1488 1487 1486 1485 1485 1484 1483 1483 1482 1482 1482 1482 1482
1482 1483 1484 1485 1488 1489 1490 1490 1491 1492 1492 1493 1493 1494 1494 1494 1495 1495 1495 1494 1494 1494 1493 1492 1491 1490 1489 1489 1488 1487 1486 1486 1485 1484 1483 1483 1482 1481 1481 1480 1480 1480 1479
1483 1484 1485 1486 1488 1489 1490 1490 1491 1491 1491 1492 1492 1493 1493 1493 1493 1493 1493 1493 1493 1493 1492 1491 1490 1489 1488 1488 1487 1486 1485 1484 1483 1482 1481 1481 1480 1480 1479 1479 1478 1478 1477
1483 1484 1485 1486 1487 1488 1489 1489 1490 1491 1490 1490 1491 1491 1492 1492 1492 1492 1492 1492 1492 1492 1491 1490 1489 1488 1488 1486 1485 1485 1484 1482 1482 1481 1480 1479 1478 1478 1478 1477 1476 1476 1475